This is the latest recevied weather packets stored in our database for station/object DB0TGO-14. If no packets are shown the sender has not sent any weather packets the latest 1 day(s).
| Time | Temp. | Humidity | Pressure | Rain* | Wind** | Luminosity | Snow |
|---|---|---|---|---|---|---|---|
| 1778006550 | 15.56° C | 86% | 1008.3 hPa | 0 mm | 1.79 m/s, 22° | - | - |
| 1778006440 | 15.56° C | 86% | 1008.3 hPa | 0 mm | 1.79 m/s, 338° | - | - |
| 1778006338 | 15.56° C | 86% | 1008.3 hPa | 0 mm | 1.79 m/s, 68° | - | - |
| 1778006235 | 15.56° C | 86% | 1008.1 hPa | 0 mm | 1.34 m/s, 45° | - | - |
| 1778006118 | 15.56° C | 86% | 1008.2 hPa | 0 mm | 1.34 m/s, 45° | - | - |
| 1778006000 | 15.56° C | 86% | 1008.1 hPa | 0 mm | 1.34 m/s, 68° | - | - |
| 1778005950 | 15.56° C | 85% | 1008.1 hPa | 0 mm | 1.34 m/s, 68° | - | - |
| 1778005898 | 15.56° C | 85% | 1008.2 hPa | 0 mm | 1.34 m/s, 45° | - | - |
| 1778005800 | 15.56° C | 85% | 1008.1 hPa | 0 mm | 1.34 m/s, 90° | - | - |
| 1778005689 | 15.56° C | 85% | 1008.2 hPa | 0 mm | 1.34 m/s, 68° | - | - |
| 1778005590 | 15.56° C | 85% | 1008.1 hPa | 0 mm | 1.79 m/s, 90° | - | - |
| 1778005475 | 16.11° C | 85% | 1008.1 hPa | 0 mm | 1.79 m/s, 68° | - | - |
| 1778005374 | 16.11° C | 85% | 1008.2 hPa | 0 mm | 1.79 m/s, 45° | - | - |
| 1778005255 | 16.11° C | 85% | 1008.2 hPa | 0 mm | 1.34 m/s, 68° | - | - |
| 1778005140 | 16.11° C | 85% | 1008.3 hPa | 0 mm | 1.79 m/s, 90° | - | - |
| 1778005028 | 16.11° C | 84% | 1008.2 hPa | 0 mm | 1.79 m/s, 22° | - | - |
| 1778005016 | 16.11° C | 85% | 1008.3 hPa | 0 mm | 1.79 m/s, 22° | - | - |
| 1778004910 | 16.11° C | 84% | 1008.2 hPa | 0 mm | 1.79 m/s, 22° | - | - |
| 1778004805 | 16.11° C | 84% | 1008.3 hPa | 0 mm | 1.79 m/s, 22° | - | - |
| 1778004695 | 16.11° C | 84% | 1008.3 hPa | 0 mm | 2.24 m/s, 22° | - | - |
| 1778004595 | 16.11° C | 84% | 1008.3 hPa | 0 mm | 1.79 m/s, 22° | - | - |
| 1778004495 | 16.11° C | 84% | 1008.3 hPa | 0 mm | 1.34 m/s, 45° | - | - |
| 1778004395 | 16.11° C | 84% | 1008.4 hPa | 0 mm | 1.34 m/s, 45° | - | - |
| 1778004295 | 16.11° C | 84% | 1008.3 hPa | 0 mm | 1.79 m/s, 68° | - | - |
| 1778004175 | 16.67° C | 83% | 1008.3 hPa | 0 mm | 1.34 m/s, 338° | - | - |
* Rain latest hour (hover to see other rain measurements)
** Current wind speed in m/s (hover to see current wind gust speed)